Lexington Weather

Lexington, Massachusetts, USA

45°F
4/22/2024 9:33am 
  • Lexington Conditions: Clear
  • Temperature: 44.8°F / 7.1°CWarmer 2.4°F than last hour.
  • Dew Point: 24.8°FDecreased 2.2°Fsince last hour.
  • Relative Humidity: 45%Decreased 9.0% since last hour.
  • Wind: Calm, 10-min avg: Calm, gust: None
  • Barometer: 29.97 inRising 0.02  inHg/hr Rising Slowly
  • Visibility: 10 miles
  • Rain Today: 0.00 in
  •   

Regional Weather Roundup
for Boston, MA

        
000
ASUS41 KBOX 191410
RWRBOX

REGIONAL WEATHER ROUNDUP
NATIONAL WEATHER SERVICE BOSTON/NORTON MA
1000 AM EDT FRI APR 19 2024

NOTE:  "FAIR" INDICATES FEW OR NO CLOUDS BELOW 12,000 FEET WITH NO 
SIGNIFICANT WEATHER AND/OR OBSTRUCTIONS TO VISIBILITY.

MAZALL-191500-
EASTERN MASSACHUSETTS
  
CITY           SKY/WX    TMP DP  RH WIND       PRES   REMARKS
BOSTON         MOSUNNY   48  42  80 E8        30.20F                  
BEVERLY        CLOUDY    48  39  71 SE9       30.19F                  
LAWRENCE       MOSUNNY   50  40  68 E7        30.20F                  
BEDFORD        MOSUNNY   50  40  68 E3        30.18F                  
NORWOOD        MOSUNNY   54  36  50 SE8       30.19F                  
MARSHFIELD     CLOUDY    48  41  76 E7        30.21S                  
PLYMOUTH       CLOUDY    51  37  58 E8        30.19F                  
TAUNTON        MOSUNNY   52  39  61 E8        30.19F                  
NEW BEDFORD    CLOUDY    51  40  65 E8        30.19F                  
$$

MAZALL-191500-
CAPE COD AND THE ISLANDS
  
CITY           SKY/WX    TMP DP  RH WIND       PRES   REMARKS
FALMOUTH       PTSUNNY   50  37  62 E9G18     30.20S                  
HYANNIS        CLOUDY    49  39  68 VRB3      30.19F                  
CHATHAM        CLOUDY    48  38  68 E10G16    30.21S                  
PROVINCETOWN   CLOUDY    48  41  76 E10       30.23R                  
NANTUCKET      CLOUDY    50  39  66 E13       30.20R                  
MARTHAS VNYRD  CLOUDY    50  42  74 E9        30.20S                  
$$
 
MAZALL-191500-
CENTRAL AND WESTERN MASSACHUSETTS
  
CITY           SKY/WX    TMP DP  RH WIND       PRES   REMARKS
WORCESTER      PTSUNNY   48  32  53 SE12      30.16S                  
FITCHBURG      CLOUDY    51  35  54 SE10      30.19S                  
ORANGE         CLOUDY    49  36  61 VRB7      30.17F                  
SPRINGFIELD    NOT AVBL                                               
WESTFIELD      CLOUDY    52  36  54 VRB5      30.16F                  
NORTH ADAMS    CLOUDY    50  34  54 E17G25    30.13F                  
PITTSFIELD     CLOUDY    47  31  53 SE7       30.12S                  
$$
 
RIZALL-191500-
RHODE ISLAND
  
CITY           SKY/WX    TMP DP  RH WIND       PRES   REMARKS
PROVIDENCE     PTSUNNY   50  40  68 E8        30.20F                  
NEWPORT        CLOUDY    50  39  66 SE8       30.18F HAZE             
BLOCK ISLAND   CLOUDY    46  42  86 E12       30.19F                  
SMITHFIELD     SUNNY     52  39  61 SE6       30.19S                  
WESTERLY       PTSUNNY   51  34  52 E14       30.18S                  
$$
 
CTZALL-191500-
CONNECTICUT
  
CITY           SKY/WX    TMP DP  RH WIND       PRES   REMARKS
BRADLEY INTL   PTSUNNY   53  38  56 S8        30.16F                  
HARTFORD       MOSUNNY   52  40  63 S5        30.17F                  
PLAINVILLE     FAIR      51  38  59 VRB5      30.16F                  
BRIDGEPORT     CLOUDY    49  41  74 E12       30.17F                  
DANBURY        PTSUNNY   51  37  58 SE9       30.16S                  
GROTON         PTSUNNY   52  36  54 E15G22    30.18S                  
NEW HAVEN      PTSUNNY   52  41  66 SE14G24   30.17F                  
CHESTER        MOSUNNY   54  32  43 VRB6G12   30.17S                  
MERIDEN        PTSUNNY   53  32  44 SE8       30.16F                  
WILLIMANTIC    MOSUNNY   51  36  56 E8        30.18S                  
OXFORD         CLOUDY    49  37  63 SE10      30.16F                  
$$

MEZ002-015-021-024-NHZ003-005-008-011-012-014-VTZ005-008-191500-
NORTHERN NEW ENGLAND
  
CITY           SKY/WX    TMP DP  RH WIND       PRES   REMARKS
PORTLAND ME    CLOUDY    49  35  58 S6        30.21F                  
BANGOR ME      MOSUNNY   53  33  46 S9        30.20F                  
CONCORD NH     MOSUNNY   48  39  71 S7        30.18F                  
MANCHESTER NH  PTSUNNY   50  36  58 S8        30.17F                  
NASHUA NH      PTSUNNY   51  41  68 VRB5      30.19F                  
PORTSMOUTH NH  PTSUNNY   51  38  61 S6        30.19F                  
JAFFREY NH     PTSUNNY   51  34  52 S10G17    30.15S                  
KEENE NH       CLOUDY    49  37  63 S6        30.16F                  
BURLINGTON VT  PTSUNNY   52  36  54 S20G29    30.06F                  
MT. WASHINGTON FOG       34  33  97 SW10        N/A  VSB 1/16WCI  26  
$$

NYZ052-076-191500-
EASTERN NEW YORK
  
CITY           SKY/WX    TMP DP  RH WIND       PRES   REMARKS
ALBANY         CLOUDY    51  35  54 S14       30.12F                  
NEW YORK CITY  PTSUNNY   50  38  63 NE6       30.16R                  
$$
 
ANZALL-191500-
MARINE OBSERVATIONS
  
STATION/POSITION TIME  TEMP    WIND        PRES    VSBY  WAVE
                       AIR SEA DIR/SP/G                  HT/PER
                 (UTC) (F)     (DEG/KT/KT) (MB)    (MI)  (FT/S)
BOSTON BUOY      1350   44     110/  6/  8 1022.5F         2/11
BUZZARDS BAY     1300   44      50/ 10/ 11 1023.1S
NANTUCKET SOUND  1350   46 47   80/ 10/ 12 1022.3F         2/ 4
MASS BAY-STELLWA 1204   45 45  130/  2/  4 1023.9R  1 7/8  2/11
ISLE OF SHOALS   1300   45     110/  4/  5 1022.7F
S OF BLOCK IS    1356      44                N/A           6/ 8
$$

......................KEY.........................
  SKY/WX - SKY CONDITION/PRESENT WEATHER
  TMP    - TEMPERATURE IN FAHRENHEIT
  DWPT   - DEWPOINT IN FAHRENHEIT
  RH     - RELATIVE HUMIDITY IN PERCENT
  WIND   - DIRECTION AND SPEED IN MPH
  PRES   - MEAN SEA LEVEL PRESSURE IN INCHES OF HG
  WCI    - WIND CHILL INDEX
  VSB    - VISIBILITY IN MILES
  HX     - HEAT INDEX
  TC     - TEMPERATURE IN CELSIUS
  VRB    - VARIABLE WIND DIRECTION
  N/A    - NOT AVAILABLE
  
      

Other recent Regional Weather Roundups

Mon Apr 22, 9:10am EDT

Mon Apr 22, 8:10am EDT

Mon Apr 22, 7:10am EDT

Mon Apr 22, 6:10am EDT

Mon Apr 22, 5:10am EDT

Mon Apr 22, 4:10am EDT

Mon Apr 22, 3:10am EDT

Mon Apr 22, 2:10am EDT

Mon Apr 22, 1:10am EDT

Mon Apr 22, 12:10am EDT

Sun Apr 21, 11:10pm EDT

Sun Apr 21, 10:10pm EDT

Sun Apr 21, 9:10pm EDT

Sun Apr 21, 8:10pm EDT

Sun Apr 21, 7:10pm EDT

Sun Apr 21, 6:10pm EDT

Sun Apr 21, 5:10pm EDT

Sun Apr 21, 4:10pm EDT

Sun Apr 21, 3:10pm EDT

Sun Apr 21, 2:10pm EDT

Sun Apr 21, 1:10pm EDT

Sun Apr 21, 12:10pm EDT

Sun Apr 21, 11:10am EDT

Sun Apr 21, 10:10am EDT

Sun Apr 21, 9:10am EDT

Sun Apr 21, 8:10am EDT

Sun Apr 21, 7:10am EDT

Sun Apr 21, 6:10am EDT

Sun Apr 21, 5:10am EDT

Sun Apr 21, 4:10am EDT

Sun Apr 21, 3:10am EDT

Sun Apr 21, 2:10am EDT

Sun Apr 21, 1:10am EDT

Sun Apr 21, 12:10am EDT

Sat Apr 20, 11:10pm EDT

Sat Apr 20, 10:10pm EDT

Sat Apr 20, 9:10pm EDT

Sat Apr 20, 8:10pm EDT

Sat Apr 20, 7:10pm EDT

Sat Apr 20, 6:10pm EDT

Sat Apr 20, 5:10pm EDT

Sat Apr 20, 4:10pm EDT

Sat Apr 20, 3:10pm EDT

Sat Apr 20, 2:10pm EDT

Sat Apr 20, 1:10pm EDT

Sat Apr 20, 12:10pm EDT

Sat Apr 20, 11:10am EDT

Sat Apr 20, 10:10am EDT

Sat Apr 20, 9:10am EDT

Sat Apr 20, 8:10am EDT

Sat Apr 20, 7:10am EDT

Sat Apr 20, 6:10am EDT

Sat Apr 20, 5:10am EDT

Sat Apr 20, 4:10am EDT

Sat Apr 20, 3:10am EDT

Sat Apr 20, 2:10am EDT

Sat Apr 20, 1:10am EDT

Sat Apr 20, 12:10am EDT

Fri Apr 19, 11:10pm EDT

Fri Apr 19, 10:10pm EDT

Fri Apr 19, 9:10pm EDT

Fri Apr 19, 8:10pm EDT

Fri Apr 19, 7:10pm EDT

Fri Apr 19, 6:10pm EDT

Fri Apr 19, 5:10pm EDT

Fri Apr 19, 4:10pm EDT

Fri Apr 19, 3:10pm EDT

Fri Apr 19, 2:10pm EDT

Fri Apr 19, 1:10pm EDT

Fri Apr 19, 12:10pm EDT

Fri Apr 19, 11:10am EDT

Fri Apr 19, 9:10am EDT

Fri Apr 19, 8:10am EDT

Fri Apr 19, 7:10am EDT

Fri Apr 19, 6:10am EDT

Fri Apr 19, 5:10am EDT

Fri Apr 19, 4:10am EDT

Fri Apr 19, 3:10am EDT

Fri Apr 19, 2:10am EDT

Fri Apr 19, 1:10am EDT

Fri Apr 19, 12:10am EDT

Thu Apr 18, 11:10pm EDT

Thu Apr 18, 10:10pm EDT

Thu Apr 18, 9:10pm EDT

Thu Apr 18, 8:10pm EDT

Thu Apr 18, 7:10pm EDT

Thu Apr 18, 6:10pm EDT

Thu Apr 18, 5:10pm EDT

Thu Apr 18, 4:10pm EDT

Thu Apr 18, 3:10pm EDT

Thu Apr 18, 2:10pm EDT

Thu Apr 18, 1:10pm EDT

Thu Apr 18, 12:10pm EDT

Thu Apr 18, 11:10am EDT

Thu Apr 18, 10:10am EDT

Thu Apr 18, 9:10am EDT

Thu Apr 18, 8:10am EDT

Thu Apr 18, 7:10am EDT

Thu Apr 18, 6:10am EDT

Thu Apr 18, 5:10am EDT

Thu Apr 18, 4:10am EDT

Thu Apr 18, 3:10am EDT

Thu Apr 18, 2:10am EDT

Thu Apr 18, 1:10am EDT

Thu Apr 18, 12:10am EDT

Wed Apr 17, 11:10pm EDT

Wed Apr 17, 10:10pm EDT

Wed Apr 17, 9:10pm EDT

Wed Apr 17, 8:10pm EDT

Wed Apr 17, 7:10pm EDT

Wed Apr 17, 6:10pm EDT

Wed Apr 17, 5:10pm EDT

Wed Apr 17, 4:10pm EDT

Wed Apr 17, 3:10pm EDT

Wed Apr 17, 2:10pm EDT

Wed Apr 17, 1:10pm EDT

Wed Apr 17, 12:10pm EDT

Wed Apr 17, 11:10am EDT

Wed Apr 17, 10:10am EDT

Wed Apr 17, 9:10am EDT

Wed Apr 17, 8:10am EDT

Wed Apr 17, 7:10am EDT

Wed Apr 17, 6:10am EDT

Wed Apr 17, 5:10am EDT

Wed Apr 17, 4:10am EDT

Wed Apr 17, 3:10am EDT

Wed Apr 17, 2:10am EDT

Wed Apr 17, 1:10am EDT

Wed Apr 17, 12:10am EDT

Tue Apr 16, 11:10pm EDT

Tue Apr 16, 10:10pm EDT

Tue Apr 16, 9:10pm EDT

Tue Apr 16, 8:10pm EDT

Tue Apr 16, 7:10pm EDT

Tue Apr 16, 6:10pm EDT

Tue Apr 16, 5:10pm EDT

Tue Apr 16, 4:10pm EDT

Tue Apr 16, 3:10pm EDT

Tue Apr 16, 2:10pm EDT

Tue Apr 16, 1:10pm EDT

Tue Apr 16, 12:10pm EDT

Tue Apr 16, 11:10am EDT

Tue Apr 16, 10:10am EDT

Tue Apr 16, 9:10am EDT

Tue Apr 16, 8:10am EDT

Tue Apr 16, 7:10am EDT

Tue Apr 16, 6:10am EDT

Tue Apr 16, 5:10am EDT

Tue Apr 16, 4:10am EDT

Tue Apr 16, 3:10am EDT

Tue Apr 16, 2:10am EDT

Tue Apr 16, 1:10am EDT

Tue Apr 16, 12:10am EDT

Mon Apr 15, 11:10pm EDT

Mon Apr 15, 10:10pm EDT

Mon Apr 15, 9:10pm EDT

Mon Apr 15, 8:10pm EDT

Mon Apr 15, 7:10pm EDT

Mon Apr 15, 6:10pm EDT

Mon Apr 15, 5:10pm EDT

Mon Apr 15, 4:10pm EDT

Mon Apr 15, 3:10pm EDT

Mon Apr 15, 2:10pm EDT

Mon Apr 15, 1:10pm EDT

Mon Apr 15, 12:10pm EDT

Mon Apr 15, 11:10am EDT

Mon Apr 15, 10:10am EDT